Location: Cleveland Crossroads
(33.1132°N, 85.9875°W)
Time: 04:20:58
(UTC+00:00)

Daily predictions for brighter satellites

Satellite Brightness Start Highest point End
(mag) Time Altitude Azimuth Time Altitude Azimuth Time Altitude Azimuth
MOS 1 Rocket 4.2 00:02:26 10° NE 00:05:53 23° E 00:09:17 10° SSE
Cosmos 1378 4.2 00:03:04 10° NNW 00:06:40 50° W 00:10:15 10° S
SL-16 R/B 3.9 00:02:29 10° NW 00:07:39 37° WSW 00:12:47 10° S
SL-24 R/B 4.1 00:04:38 10° SSE 00:08:55 82° ENE 00:13:26 10° N
BREEZE-M DEB (TANK) 2.5 00:07:39 10° SSW 00:10:02 60° SE 00:14:52 10° NE
Cosmos 1782 Rocket 3.5 00:06:35 10° S 00:10:56 72° E 00:15:21 10° N
Cosmos 1844 Rocket 3.6 00:07:21 10° SSE 00:11:52 26° ESE 00:16:23 10° NE
Meteor 2-9 Rocket 4.3 00:07:59 10° S 00:13:52 85° E 00:19:41 10° N
Tsikada Rocket 4.2 00:10:26 10° N 00:16:35 80° W 00:22:46 10° S
ISS -1.5 00:14:08 10° W 00:16:57 24° NW 00:19:46 10° NNE
CZ-2D R/B 3.2 00:13:35 10° SSE 00:17:28 81° ENE 00:21:21 10° N
Cosmos 807 4.1 00:17:45 10° S 00:20:43 85° E 00:24:08 10° N
Cosmos 1937 Rocket 4.2 00:16:26 10° SSW 00:21:37 59° WNW 00:26:47 10° N
Cosmos 2084 Rocket 3.8 00:18:25 10° NNW 00:22:48 51° ENE 00:27:14 10° SE
USA 234 4.0 00:21:29 10° ENE 00:27:09 31° SE 00:32:50 10° S
Cosmos 1125 Rocket 4.5 00:23:56 10° SSE 00:28:12 25° E 00:32:29 10° NE
Cosmos 1939 Rocket 3.9 00:24:31 10° S 00:28:31 51° W 00:32:34 10° NNW
CZ-2C R/B 1.2 00:26:26 10° W 00:30:06 62° N 00:32:43 16° ENE
Cosmos 2112 Rocket 4.2 00:25:08 10° NNW 00:30:21 78° WSW 00:35:34 10° S
Cosmos 1943 3.2 00:26:00 10° NNW 00:31:38 68° ENE 00:37:16 10° SSE
Cosmos 1680 Rocket 4.1 00:28:16 10° NNW 00:33:25 60° WSW 00:38:34 10° S
CSL-04 Debris 4.2 00:29:47 10° SSE 00:35:03 59° ENE 00:40:21 10° N
Exosat Rocket 4.5 00:30:37 10° SSE 00:36:02 31° ESE 00:40:33 10° NE
Iridium 4 Rocket 4.2 00:31:43 10° SSW 00:36:25 56° W 00:41:36 10° N
NOSS 3-4 (A) 4.4 00:33:05 10° SSE 00:37:26 22° ESE 00:41:51 10° ENE
NOSS 3-4 (C) 4.4 00:33:15 10° SSE 00:37:33 21° ESE 00:41:56 10° ENE
Cosmos 1975 Rocket 2.9 00:36:59 10° N 00:41:18 80° E 00:45:36 10° S
CSL-04 Rocket 3.6 00:36:31 10° SSE 00:41:50 65° ENE 00:47:15 10° N
Cosmos 1174 4.4 00:41:35 10° SSW 00:46:02 86° WNW 00:51:46 10° NNE
Shenzhou-11 Module 3.0 00:45:51 10° SSW 00:46:55 19° S 00:46:55 19° S
Cosmos 1603 4.1 00:47:55 10° NNW 00:53:31 64° WSW 00:59:01 10° S
HJ-1C 3.2 00:52:52 10° SSE 00:56:08 86° ENE 00:59:25 10° N
H-2A R/B 1.8 00:51:51 10° SSE 00:56:45 75° ENE 01:01:46 10° N
Sich 1 Rocket 4.5 00:55:07 10° SSW 00:59:27 52° W 01:03:53 10° N
ATLAS 2AS CENTAUR R/B 3.4 00:52:35 10° S 00:59:34 37° ESE 01:06:41 10° NE
Meteor 1-12 Rocket 4.4 00:56:20 10° S 01:02:17 84° W 01:08:09 10° N
Nadezhda 4 Rocket 4.2 00:58:48 10° N 01:04:36 43° E 01:07:55 24° SE
Cosmos 2034 Rocket 4.0 00:58:56 10° S 01:05:14 68° E 01:11:32 10° NNE
CZ-4 R/B 3.7 01:07:47 10° SSW 01:11:19 26° W 01:14:51 10° NW
CENTAUR R/B 4.2 01:04:35 10° N 01:11:29 28° NE 01:14:15 24° ENE
GOES 2 Rocket 3.5 01:07:46 10° WSW 01:11:42 41° S 01:12:20 38° SSE
Okean 1 Rocket 4.4 01:16:18 25° NE 01:16:18 25° NE 01:18:32 10° NNE
Okean 2 Rocket 3.8 01:11:27 10° SSW 01:15:52 55° W 01:20:17 10° N
Ariane Rocket 3.1 01:16:43 42° ESE 01:17:47 50° ENE 01:22:40 10° N
Cosmos 1300 Rocket 4.4 01:14:18 10° SSW 01:18:33 51° W 01:22:52 10° N
Cosmos 1707 3.2 01:16:45 10° NNW 01:20:31 60° W 01:23:09 19° S
ARGOS 3.2 01:20:47 10° S 01:26:03 76° WSW 01:31:26 10° NNW
USA 238 DEB 4.3 01:20:37 10° NNW 01:27:33 44° NE 01:29:17 39° E
USA 238 4.3 01:20:43 10° NNW 01:27:39 44° NE 01:29:22 38° E
DELTA 2 R/B (1) 3.7 01:22:09 10° WNW 01:27:40 68° SSW 01:29:07 48° SE
In-Cosmos 22 4.1 01:25:32 10° N 01:30:52 82° W 01:34:17 23° S
SJ-6B 4.2 01:33:14 26° N 01:33:14 26° N 01:35:02 10° N
SL-08 RB Rocket 3.6 01:30:56 50° S 01:32:08 88° WSW 01:36:43 10° NNW
Cosmos 1634 Rocket 4.1 01:37:17 49° ENE 01:37:17 49° ENE 01:42:37 10° NNE
CZ-2C R/B 2.8 01:31:16 10° N 01:36:50 78° WNW 01:42:26 10° SSW
USA 186 4.1 01:43:19 20° NNW 01:43:19 20° NNW 01:44:29 10° NNW
Cosmos 1536 Rocket 3.8 01:41:02 10° NNW 01:45:28 69° W 01:45:33 69° WSW
Cosmos 2285 Rocket 4.1 01:40:39 10° SSW 01:46:55 73° WNW 01:53:15 10° NNE
Cosmos 1025 Rocket 4.2 01:46:10 10° NNW 01:50:18 41° W 01:51:49 30° SW
NOSS 3-2 (A) 4.0 01:46:49 10° NNW 01:54:43 73° ENE 01:56:30 58° ESE
Cosmos 1844 Rocket 4.2 01:50:31 10° SW 01:55:31 34° WNW 02:00:33 10° N
Meteor 2-13 Rocket 4.3 01:49:31 10° N 01:55:29 74° ENE 01:55:29 74° ENE
Cosmos 1092 Rocket 3.9 01:59:17 10° N 02:05:05 79° NNE 02:05:05 79° NNE
MetOp-A 4.4 02:07:40 65° WNW 02:07:40 65° WNW 02:12:41 10° NNW
CZ-2C R/B 3.9 02:06:19 10° WNW 02:07:04 15° WNW 02:07:04 15° WNW
Cosmos 2026 Rocket 4.4 02:03:48 10° N 02:08:36 52° NNE 02:08:36 52° NNE
USA 234 3.7 02:04:41 14° NNE 02:10:17 59° NW 02:16:41 10° WSW
Milstar 3 Cent rocket 3.4 02:10:26 10° WSW 02:14:13 33° SW 02:14:13 33° SW
BREEZE-M DEB (TANK) 4.3 02:07:19 10° NW 02:22:38 86° NW 02:22:38 86° NW
NOSS 3-4 (A) 4.2 02:22:12 10° SW 02:27:49 46° NW 02:30:10 31° N
NOSS 3-4 (C) 4.2 02:22:19 10° SW 02:27:54 47° NW 02:29:46 36° N
NOSS 3-2 (C) 4.1 02:22:29 10° NNW 02:29:49 74° NNE 02:29:49 74° NNE
Resurs 01 Rocket 4.5 02:36:49 12° NNW 02:36:49 12° NNW 02:37:04 10° NNW
ATLAS 2AS CENTAUR R/B 3.9 02:42:55 10° SW 02:50:24 46° NW 02:57:59 10° NNE
BREEZE-M DEB (TANK) 4.4 02:50:01 10° NW 02:54:11 66° W 02:54:11 66° W
CENTAUR R/B 3.5 02:54:28 10° NW 03:01:27 62° WNW 03:01:27 62° WNW
ATLAS 3B R/B 4.4 03:04:28 10° NNW 03:07:18 25° N 03:07:18 25° N
USA 267 4.3 08:18:28 10° NNE 08:22:28 36° N 08:22:28 36° N
MSX 4.5 08:42:10 10° NNE 08:47:06 52° ENE 08:47:06 52° ENE
Cosmos 1980 Rocket 3.7 08:52:46 27° N 08:52:46 27° N 08:55:25 10° N
BREEZE-M DEB (TANK) 4.0 08:55:56 76° WSW 08:56:39 85° NW 09:01:15 10° NE
Cosmos 2322 Rocket 3.6 08:55:32 29° SE 08:56:57 33° ESE 09:01:58 10° NE
Cosmos 2263 Rocket 4.0 08:58:02 10° N 09:02:57 30° ENE 09:07:51 10° ESE
SL-16 R/B 2.8 09:05:31 49° SE 09:06:07 52° ESE 09:11:37 10° NNE
SL-4 R/B 3.5 09:08:18 39° NE 09:08:18 39° NE 09:11:19 10° NE
Chandra Rocket (1) 4.4 09:05:32 44° WSW 09:10:59 63° SSW 09:17:42 10° ESE
Cosmos 1934 Rocket 3.9 09:07:25 10° N 09:12:49 71° NNW 09:12:49 71° NNW
ARIANE 5 R/B 4.4 09:11:11 10° N 09:12:41 19° NNW 09:12:41 19° NNW
Meteor 1-10 Rocket 4.4 09:17:09 50° SSE 09:18:36 71° E 09:24:25 10° NNE
CZ-2C R/B 3.3 09:17:09 10° NNE 09:22:11 50° E 09:24:58 25° SSE
IDEFIX/ARIANE 42P 3.8 09:17:13 10° N 09:20:03 30° NNW 09:20:03 30° NNW
Cosmos 1763 Rocket 3.8 09:21:34 56° SSE 09:22:26 66° ESE 09:27:42 10° NNE
SJ 16-02 2.3 09:26:56 10° N 09:31:11 47° ENE 09:35:25 10° SSE
Meteor 2-6 Rocket 4.1 09:32:38 67° W 09:32:48 67° W 09:38:33 10° N
H-2A R/B 2.4 09:29:24 10° SSE 09:33:39 65° ENE 09:38:03 10° N
PSLV R/B 3.6 09:30:21 10° NNE 09:34:32 70° E 09:34:43 69° ESE
Meteor 1-5 Rocket 4.2 09:31:20 10° N 09:36:41 74° E 09:42:08 10° SSE
Cosmos 1238 Rocket 3.9 09:32:36 10° NNW 09:38:51 54° W 09:39:04 54° W
Cosmos 1605 Rocket 3.9 09:34:24 10° N 09:40:50 80° W 09:47:12 10° S
Skynet4D Del rocket 4.0 09:42:00 43° SSW 09:42:32 44° S 09:48:08 10° ESE
Landsat 5 3.5 09:39:40 10° SSE 09:44:11 90° WSW 09:48:42 10° NNW
ERS-2 3.2 09:43:16 10° SSE 09:46:46 44° ENE 09:50:15 10° N
Cosmos 540 Rocket 4.0 09:44:36 12° S 09:49:11 56° ESE 09:54:15 10° NNE
PAYLOAD A 3.6 09:44:39 10° N 09:49:19 71° WNW 09:50:28 49° SW
Cosmos 468 Rocket 4.1 09:50:04 50° WSW 09:50:53 56° WNW 09:56:04 10° N
X-37B 3.4 09:51:10 12° N 09:52:06 13° NNE 09:53:38 10° NE
ALOS 3.3 09:57:28 10° NNE 10:01:57 45° E 10:06:24 10° S
Cosmos 1484 Rocket 4.0 09:58:12 10° NNE 10:02:02 44° E 10:05:52 10° S
Cosmos 1536 3.3 10:04:51 10° N 10:08:54 63° E 10:12:55 10° SSE
Cosmos 1727 Rocket 4.1 10:03:35 13° SSW 10:09:10 54° W 10:15:22 10° N
Cosmos 1437 Rocket 4.4 10:07:45 10° SSE 10:11:11 35° E 10:14:39 10° NNE
Meteor 1-31 Rocket 3.7 10:09:52 10° NNE 10:13:35 49° E 10:17:19 10° S
DASH 4.0 10:14:08 24° SW 10:14:56 25° SW 10:17:43 10° SSE
Meteor 1-11 Rocket 3.6 10:10:43 10° NNW 10:16:27 76° W 10:22:02 10° S
Cosmos 2100 Rocket 4.2 10:11:07 10° N 10:17:31 78° E 10:23:51 10° S
Meteor 1-27 Rocket 4.0 10:15:11 10° SSW 10:20:56 52° W 10:26:43 10° N
deb Chang Zheng 4 3.4 10:18:10 10° N 10:22:26 72° WNW 10:26:39 10° SSW
SL-8 R/B 4.3 10:18:04 10° NW 10:22:46 56° NE 10:27:26 10° ESE
Cosmos 2360 Rocket 2.1 10:18:02 10° SSW 10:23:42 78° WNW 10:29:23 10° NNE
ADEOS Rocket 3.2 10:18:55 10° S 10:26:00 77° WSW 10:32:22 10° NNW
METEOR-M 4.4 10:22:02 10° NNE 10:27:23 73° ESE 10:32:42 10° S
Cosmos 1898 Rocket 3.4 10:22:38 10° NNW 10:27:53 70° WSW 10:33:08 10° S
ATLAS 2AS CENTAUR R/B 4.2 10:21:37 10° NNW 10:28:25 39° NE 10:34:40 10° ESE
Cosmos 1707 Rocket 4.3 10:26:34 21° WSW 10:28:29 30° W 10:32:20 10° NNW
Cosmos 1666 3.1 10:27:36 10° NNW 10:31:09 39° W 10:34:41 10° SSW
Cosmos 1459 Rocket 3.9 10:26:27 10° N 10:32:33 86° W 10:38:35 10° S
Cosmos 2123 Rocket 4.2 10:26:27 10° S 10:32:37 75° E 10:38:53 10° N
Cosmos 2242 Rocket 4.4 10:30:18 10° S 10:34:34 54° E 10:38:52 10° NNE
SAR-Lupe-4 3.6 10:31:02 10° SSE 10:34:36 83° ENE 10:38:12 10° N
Cosmos 2208 Rocket 4.0 10:31:50 10° SSW 10:37:01 60° WNW 10:42:10 10° N
USA 234 3.2 10:31:38 10° SE 10:38:08 73° SW 10:44:40 10° NW
Cosmos 858 Rocket 4.4 10:33:08 10° NNW 10:38:21 81° WSW 10:43:32 10° SSE
FENGYUN 3A 3.6 10:33:29 10° N 10:38:52 71° WNW 10:44:14 10° SSW
Cosmos 2322 Rocket 3.1 10:37:25 16° WSW 10:40:56 28° WNW 10:45:46 10° N
SAR-Lupe-1 3.9 10:43:13 10° S 10:46:44 69° WSW 10:50:18 10° NNW
Cosmos 2263 Rocket 2.9 10:41:51 10° NW 10:46:46 31° WSW 10:51:40 10° SSW
SL-4 R/B 4.0 10:43:55 12° WNW 10:46:50 20° NNW 10:50:21 10° NNE
BREEZE-M DEB (TANK) 4.2 10:45:32 10° SW 10:49:11 74° SE 11:01:52 10° NE
SL-16 R/B 3.6 10:47:26 13° W 10:50:30 19° WNW 10:54:26 10° NNW
Cosmos 1733 Rocket 3.2 10:48:03 10° NNW 10:52:14 49° W 10:56:23 10° SSW
Cosmos 1844 Rocket 3.7 10:47:25 10° N 10:52:54 51° ENE 10:58:23 10° SE
Cosmos 1937 Rocket 3.5 10:48:14 10° NNW 10:53:15 55° WSW 10:58:14 10° S
Cosmos 1814 Rocket 4.4 10:49:43 10° SW 10:54:34 40° WNW 10:59:30 10° N
Cosmos 44 Rocket 4.2 10:51:43 10° WSW 10:55:41 28° NW 10:59:50 10° N
Cosmos 841 Rocket 4.3 10:51:15 10° SW 10:55:49 30° WNW 11:00:26 10° N
ADEOS 4.2 10:52:26 10° N 10:57:04 34° WNW 11:01:42 10° SW
CZ-2C R/B 4.1 10:56:46 10° NNW 10:59:56 17° WNW 11:03:05 10° WSW
Cosmos 1862 Rocket 4.5 10:58:58 10° SW 11:02:42 27° WNW 11:06:26 10° NNW
Gbstr 26 Del rocket 4.3 10:57:09 10° NW 11:05:00 88° SW 11:11:35 10° SE
CZ-4B R/B 2.5 11:02:59 10° SSW 11:05:26 21° W 11:07:57 10° NW
Cosmos 2173 Rocket 4.4 10:59:35 10° NNW 11:05:33 44° W 11:11:30 10° SSW
Cosmos 1975 4.1 11:01:52 10° N 11:05:44 47° E 11:09:35 10° SSE
SJ-12 4.0 11:01:48 10° N 11:05:51 57° WNW 11:09:53 10° SSW
SJ 16-02 3.2 11:08:03 10° W 11:09:13 11° W 11:10:24 10° WSW
Cosmos 1743 2.8 11:06:57 10° NNW 11:10:39 52° W 11:14:20 10° S
